CZ-6A DEB

Satellite information

Favourite Embed

Satellite Type and Status

DEBRISIN ORBIT

Key statistics

Satellite CZ-6A DEB at a glance.

Uptime

494

Days in orbit

Revolutions

≈ 14.2

Per day

Orbit

LEO

Low Earth Orbit

Inclination

89.0

Latest

Satellite identification and parameters

Extended collection of information and parameters for CZ-6A DEB.

Object identification

Identified? True

Debris? True

Object name: CZ-6A DEB

International designator: 2024-140ABT

Object number (NORAD): 61803

Object ID (CCSDS): 61803

Country: PEOPLES REPUBLIC OF CHINA (PRC)

Current information (Y/N): Y

RCS size: SMALL

Orbital parameters

Period: 101.714 minutes

Inclination: 88.984 deg

SMA: 7217.941 km

Apoapsis: 890.063 km

Periapsis: 789.548 km

RAAN: 295.3463 deg

Eccentricy: 0.00696285

Argument of periapsis: 66.6808 deg

Mean anomaly: 294.1687 deg

Mean motion: 14.15737666 rev/day

Mean motion (dot): 0.00001295 rev/day2

B* drag term: 0.00063762908 1/REarth

Two-line elements (TLE)

Creation date: Dec. 11, 2025, 7:14 p.m.

Reference frame: TEME

Reference center: EARTH

Epoch: Dec. 11, 2025, 6:59 a.m. UTC

TLE line 0: 0 CZ-6A DEB

TLE line 1: 1 61803U 24140ABT 25345.29153022 .00001295 00000-0 63763-3 0 9997

TLE line 2: 2 61803 88.9840 295.3463 0069628 66.6808 294.1687 14.15737666 65671

Live tracking on map

Real-time ground track for satellite CZ-6A DEB.

In-orbit conjunctions

A list of the most updated potential collisions computed for object CZ-6A DEB.

Target Orbit TCA Probability of collision Miss distance Type
FENGYUN 1C DEB SSO 2025-09-10 10:50:26 0.0003026304 164.0 (m) DEBRIS
CZ-4 DEB SSO 2025-06-09 01:53:21 0.0001140856 197.0 (m) DEBRIS
DELTA 1 R/B SSO 2025-04-14 16:30:20 0.0001009995 168.0 (m) ROCKET BODY
SL-16 DEB LEO 2025-02-25 06:29:57 0.0001638524 295.0 (m) DEBRIS
NOAA 16 DEB SSO 2025-01-21 22:53:36 0.000116126 382.0 (m) DEBRIS

Associated space launch

18 Low Earth Orbit communication satellites with Ku, Q and V band payloads for the G60 constellation operated by Shanghai Spacecom Satellite Technology (SSST) with funding backed by the Shanghai local government. Initial constellation will consist of 1296 satellites by 2027 with long term plans to expand it to 12000 satellites.

CZ-6A DEB was lifted into orbit during the mission ‘Long March 6A | G60 Polar Group 01’, on board a Long March 6A space rocket.

The launch took place on Aug. 6, 2024, 6:42 a.m. from Launch Complex 9A.

For more information about the launch, click the button.

Launch to space Long March 6A | G60 Polar Group 01
Long March 6A | G60 Polar Group 01

Agency: N/A

Status: Launch Successful

Launch date: Aug. 6, 2024, 6:42 a.m. UTC

Rocket: Long March 6A

Launch pad: Launch Complex 9A

Location: Taiyuan Satellite Launch Center, People's Republic of China

...

Latest news about this satellite

News about space launch
Brightness of first Chinese broadband constellation satellites alarms astronomers

The first satellites of a Chinese broadband constellation are significantly brighter than those of Western systems, posing a new challenge for astronomers.

News about space launch
Chinese rocket stage breaks up into cloud of more than 700 pieces of space debris

HELSINKI — A Chinese Long March 6A rocket’s upper stage has fragmented into a cloud of over 700 pieces of space debris, adding to concerns about long-term orbital safety. China […]

News about space launch
China's Thousand Sails Megaconstellation Kicks Off with Dangerous Debris Field

China's Thousand Sails Megaconstellation Kicks Off with Dangerous Debris Field


Newsletter sign-up

Weekly statistics, charts and insights to help you stay on top of the space industry.